Airfield :
LOGIN :

Register | Disclaimer

   EN    FR    IT 

 










Legend :    VFR   Marginal VFR   IFR   Intensive IFR   Very Intensive IFR
Visi :
Ceiling :
>= 8 km
>= 3000ft
5 to 8 km
1000 to 3000 ft
1500m to 5 km
500 to 1000 ft
800 to 1500m
200 to 500 ft
< 800m
< 200 ft
Symbols :   Thunderstorms  Fog  Heavy snow  Heavy precipitations  Wind > 20 kt
SIGMETs :     Misc.  Thunderstorms  Icing  Turbulence  Mountain Waves  Volcanic Ashes







- Airport Elevation : 45 ft
- IATA code : CEG
- Download approach charts


EGNR - Hawarden Chester

CURRENT METAR :
  • 251920Z 06008KT 9999 FEW015 SCT030 17/13 Q1024

EXPIRED METARs :
  • 251850Z 07007KT 9999 BKN020 17/14 Q1024
  • 251820Z 06006KT 9999 BKN020 18/14 Q1023
  • 251750Z 08006KT 9999 BKN025 18/14 Q1023
  • 251720Z 08005KT 040V110 9999 BKN025 18/14 Q1023
  • 251650Z 06007KT 9999 BKN025 18/15 Q1023

TAF TAF EGNR
Valid from the 25 at 18:00 until the 25 at 20:00 UTC


251659Z 2518/2520 04007KT 9999 SCT025
TEMPO 2518/2520 BKN012
No reported NOTAMs for that airfield.



MET'MAP, your aeronautical weather chart ! - Copyright ORBIFLY December 2007 - Disclaimer

ORBIFLY MET'MAP TEAM :

Programming & Development : Alexandra Zaïnal
Concept & Development : Baudouin d'Aumeries
Co-Development & Prog : Marc-Olivier Méhu
Technical & hardware support : Manuel Goepfert

Contact : metmap@orbifly.com




SOURCES & CREDITS :

   NOAA